FW6595 Weather Reports


time (UTC)temp
C
wind
direction
speed
KPH
gust
KPH
rain 1hr
cm
rain 24hr
cm
rain mn
cm
humidity
%
barometer
mb
20260504191518 17 178 4.8 6.4 0.00 0.56 0.56 82 1000.3
20260504190521 17 241 3.2 8.0 0.30 0.56 0.56 86 1002.2
20260504185543 17 0.0 0.0 0.33 0.56 0.56 86 1002.2
20260504184526 17 0.0 0.0 0.36 0.56 0.56 86 1001.8
20260504183609 16 136 3.2 6.4 0.41 0.56 0.56 84 1001.5
20260504182551 16 143 3.2 8.0 0.46 0.56 0.56 85 1001.6
20260504181516 16 143 8.0 12.9 0.51 0.56 0.56 88 1001.7
20260504180519 15 158 3.2 4.8 0.20 0.25 0.25 89 1002.7
20260504175522 16 0.0 0.0 0.20 0.23 0.23 89 1002.9
20260504174518 16 0.0 0.0 0.20 0.20 0.20 88 1002.7
20260504173516 16 0.0 0.0 0.15 0.15 0.15 86 1002.9
20260504172550 16 0.0 0.0 0.10 0.10 0.10 85 1002.9
20260504171612 17 0.0 1.6 0.05 0.05 0.05 82 1002.9
20260504170517 17 315 0.0 3.2 0.05 0.05 0.05 80 1002.5
20260504150525 20 192 3.2 8.0 0.00 0.00 0.00 55 1004.2
20260504140528 23 169 8.0 9.7 0.00 0.00 0.00 46 1004.1
20260504130527 19 174 4.8 9.7 0.00 0.00 0.00 61 1004.6
20260504110524 13 135 0.0 1.6 0.00 0.00 0.00 79 1004.9
20260504100522 15 0.0 0.0 0.00 0.00 0.00 76 1005.2
20260504081536 16 0.0 0.0 0.00 0.00 0.00 71 1005.0
20260504080520 16 0.0 0.0 0.00 0.00 0.00 70 1005.0
20260504050555 19 107 4.8 6.4 0.00 0.00 0.00 52 1004.5
20260504045517 20 184 6.4 9.7 0.00 0.00 0.00 51 1004.5
20260504044520 20 170 4.8 8.0 0.00 0.00 0.00 51 1004.6
20260504043523 20 188 4.8 8.0 0.00 0.00 0.00 50 1005.2
20260504042525 20 210 3.2 6.4 0.00 0.00 0.00 50 1005.3
20260504041530 20 190 4.8 8.0 0.00 0.00 0.00 50 1005.4
20260504040531 20 161 3.2 6.4 0.00 0.00 0.00 50 1004.8
20260504035516 20 87 3.2 4.8 0.00 0.00 0.00 51 1005.9
20260504034519 20 156 3.2 8.0 0.00 0.00 0.00 51 1006.1
20260504033521 18 154 3.2 6.4 0.00 0.00 0.00 53 1006.2
20260504032524 18 135 0.0 1.6 0.00 0.00 0.00 55 1006.3
20260504031528 18 0.0 0.0 0.00 0.00 0.00 54 1006.3
20260504030530 19 0.0 0.0 0.00 0.00 0.00 52 1006.1
20260504025526 20 0.0 0.0 0.00 0.00 0.00 51 1006.1
20260504024517 20 0.0 0.0 0.00 0.00 0.00 49 1006.2
20260504023520 20 0.0 0.0 0.00 0.00 0.00 47 1006.0
20260504022516 21 296 1.6 3.2 0.00 0.00 0.00 46 1005.9
20260504021525 21 210 1.6 3.2 0.00 0.00 0.00 44 1005.7
20260504020528 21 186 3.2 6.4 0.00 0.00 0.00 44 1005.6
20260504015531 21 163 4.8 8.0 0.00 0.00 0.00 44 1005.6
20260504014516 21 101 0.0 3.2 0.00 0.00 0.00 43 1005.5
20260504013518 21 174 3.2 4.8 0.00 0.00 0.00 43 1005.3
20260504012521 21 175 4.8 8.0 0.00 0.00 0.00 42 1005.3
20260504011524 22 175 3.2 4.8 0.00 0.00 0.00 42 1005.2
20260504010526 22 203 3.2 6.4 0.00 0.00 0.00 41 1005.3
20260504005529 22 144 1.6 3.2 0.00 0.00 0.00 41 1005.2
20260504004532 22 177 1.6 3.2 0.00 0.00 0.00 40 1005.2
20260504003516 22 135 1.6 4.8 0.00 0.00 0.00 39 1005.3
20260504002519 23 82 3.2 6.4 0.00 0.00 0.00 38 1005.4
20260504001522 23 187 1.6 3.2 0.00 0.00 0.00 37 1005.4
20260504000525 23 247 1.6 4.8 0.00 0.00 0.00 37 1005.4
20260503235528 23 183 4.8 4.8 0.00 0.00 0.00 36 1005.4
20260503234526 23 182 3.2 6.4 0.00 0.00 0.00 35 1005.6
20260503233535 24 185 3.2 6.4 0.00 0.00 0.00 35 1005.7
20260503232518 24 126 3.2 8.0 0.00 0.00 0.00 34 1005.8
20260503231540 25 290 4.8 8.0 0.00 0.00 0.00 33 1005.8
20260503230543 25 181 4.8 8.0 0.00 0.00 0.00 34 1005.7
20260503225525 25 142 6.4 8.0 0.00 0.00 0.00 33 1006.0
20260503224528 25 185 3.2 6.4 0.00 0.00 0.00 33 1006.1
20260503223531 25 177 8.0 11.3 0.00 0.00 0.00 32 1006.0
20260503222516 25 225 6.4 11.3 0.00 0.00 0.00 32 1006.0
20260503221519 25 125 4.8 11.3 0.00 0.00 0.00 32 1006.0
20260503220523 25 278 8.0 12.9 0.00 0.00 0.00 30 1006.2
20260503215604 25 245 6.4 9.7 0.00 0.00 0.00 32 1006.3
20260503214548 25 129 6.4 8.0 0.00 0.00 0.00 31 1006.2
20260503213529 25 244 8.0 12.9 0.00 0.00 0.00 31 1006.4
20260503212532 25 155 4.8 9.7 0.00 0.00 0.00 31 1006.5
20260503211517 25 113 3.2 4.8 0.00 0.00 0.00 31 1006.5
20260503210520 25 200 8.0 11.3 0.00 0.00 0.00 31 1006.6
20260503205543 24 231 9.7 14.5 0.00 0.00 0.00 31 1006.9
20260503204526 24 213 6.4 8.0 0.00 0.00 0.00 32 1007.0
20260503203522 24 115 8.0 14.5 0.00 0.00 0.00 32 1007.6
20260503202518 24 164 6.4 9.7 0.00 0.00 0.00 33 1007.6
20260503201515 23 196 9.7 11.3 0.00 0.00 0.00 33 1007.7
20260503200519 24 123 9.7 12.9 0.00 0.00 0.00 31 1008.1
20260503195541 23 207 6.4 11.3 0.00 0.00 0.00 32 1008.6
20260503194523 24 184 9.7 14.5 0.00 0.00 0.00 32 1008.8
20260503193546 23 95 6.4 9.7 0.00 0.00 0.00 33 1008.9
20260503192531 23 134 6.4 11.3 0.00 0.00 0.00 32 1009.1